When you browse on this site, cookies collect data to enhance your experience and personalize the content and advertising you see.
Visit our Privacy Policy to learn more. By continuing to use the site, you agree to this use of cookies and data.
  • în România
  • Lista ţărilor
  • Pe 7 zile
  • Temperatura apei
  • Meteo pe hartă
  • Widget-uri
  • user-avatar
    Intrare

    Meteo pe oră la Zasechnyy

    Astăzi, 15 Octombrie, Marţi

    Timp Temperatura Precipitaţii Vânt Presiune Umiditate
    00:00 +14°C° 0 mm 7 m/s 739 mmHg 82%
    01:00 +14°C° 0 mm 7 m/s 739 mmHg 83%
    02:00 +13°C° 0 mm 6 m/s 739 mmHg 85%
    03:00 +13°C° 0 mm 6 m/s 739 mmHg 89%
    04:00 +13°C° 0 mm 6 m/s 739 mmHg 90%
    05:00 +12°C° 0 mm 5 m/s 739 mmHg 91%
    06:00 +12°C° 0 mm 5 m/s 739 mmHg 92%
    07:00 +11°C° 0 mm 6 m/s 740 mmHg 89%
    08:00 +11°C° 0 mm 6 m/s 741 mmHg 85%
    09:00 +11°C° 0 mm 6 m/s 741 mmHg 81%
    10:00 +13°C° 0 mm 6 m/s 742 mmHg 77%
    11:00 +13°C° 0 mm 6 m/s 743 mmHg 73%
    12:00 +14°C° 0 mm 5 m/s 743 mmHg 69%
    13:00 +13°C° 0 mm 5 m/s 744 mmHg 69%
    14:00 +12°C° 0 mm 5 m/s 744 mmHg 70%
    15:00 +12°C° 0 mm 5 m/s 745 mmHg 70%
    16:00 +11°C° 0 mm 4 m/s 745 mmHg 70%
    17:00 +10°C° 0 mm 4 m/s 746 mmHg 71%
    18:00 +9°C° 0 mm 3 m/s 746 mmHg 72%
    19:00 +8°C° 0 mm 3 m/s 747 mmHg 75%
    20:00 +7°C° 0 mm 3 m/s 747 mmHg 77%
    21:00 +5°C° 0 mm 3 m/s 748 mmHg 80%
    22:00 +6°C° 0 mm 2 m/s 748 mmHg 81%
    23:00 +5°C° 0 mm 2 m/s 749 mmHg 82%

    Mâine, 16 Octombrie, Miercuri

    Timp Temperatura Precipitaţii Vânt Presiune Umiditate
    00:00 +4°C° 0 mm 2 m/s 749 mmHg 83%
    01:00 +4°C° 0 mm 2 m/s 749 mmHg 84%
    02:00 +3°C° 0 mm 2 m/s 750 mmHg 86%
    03:00 +3°C° 0 mm 2 m/s 750 mmHg 87%
    04:00 +3°C° 0 mm 2 m/s 750 mmHg 89%
    05:00 +2°C° 0 mm 2 m/s 750 mmHg 90%
    06:00 +2°C° 0 mm 2 m/s 750 mmHg 91%
    07:00 +2°C° 0 mm 3 m/s 750 mmHg 87%
    08:00 +2°C° 0 mm 3 m/s 751 mmHg 83%
    09:00 +3°C° 0 mm 3 m/s 751 mmHg 78%
    10:00 +4°C° 0 mm 3 m/s 751 mmHg 75%
    11:00 +5°C° 0 mm 4 m/s 751 mmHg 71%
    12:00 +6°C° 0 mm 4 m/s 750 mmHg 67%
    13:00 +7°C° 0 mm 4 m/s 750 mmHg 67%
    14:00 +7°C° 0 mm 4 m/s 750 mmHg 67%
    15:00 +8°C° 0 mm 4 m/s 750 mmHg 68%
    16:00 +8°C° 0 mm 4 m/s 749 mmHg 70%
    17:00 +7°C° 0 mm 4 m/s 749 mmHg 73%
    18:00 +6°C° 0 mm 4 m/s 748 mmHg 76%
    19:00 +7°C° 0 mm 5 m/s 748 mmHg 75%
    20:00 +7°C° 0 mm 5 m/s 748 mmHg 75%
    21:00 +7°C° 0 mm 5 m/s 747 mmHg 75%
    22:00 +7°C° 0 mm 5 m/s 747 mmHg 76%
    23:00 +7°C° 0 mm 6 m/s 747 mmHg 76%

    Poimâine, 17 Octombrie, Joi

    Timp Temperatura Precipitaţii Vânt Presiune Umiditate
    00:00 +7°C° 0 mm 6 m/s 746 mmHg 77%
    01:00 +7°C° 0 mm 6 m/s 746 mmHg 79%
    02:00 +7°C° 0 mm 6 m/s 746 mmHg 81%
    03:00 +7°C° 0 mm 5 m/s 746 mmHg 83%
    04:00 +7°C° 0 mm 5 m/s 745 mmHg 85%
    05:00 +7°C° 0 mm 6 m/s 745 mmHg 86%
    06:00 +7°C° 0 mm 6 m/s 744 mmHg 87%
    07:00 +7°C° 0 mm 6 m/s 744 mmHg 87%
    08:00 +8°C° 0 mm 6 m/s 744 mmHg 87%
    09:00 +8°C° 0 mm 6 m/s 744 mmHg 86%
    10:00 +10°C° 0 mm 6 m/s 744 mmHg 82%
    11:00 +11°C° 0 mm 6 m/s 744 mmHg 78%
    12:00 +14°C° 0 mm 5 m/s 744 mmHg 74%
    13:00 +14°C° 0 mm 5 m/s 743 mmHg 72%
    14:00 +15°C° 0 mm 5 m/s 743 mmHg 70%
    15:00 +16°C° 0 mm 5 m/s 743 mmHg 68%
    16:00 +15°C° 0 mm 4 m/s 743 mmHg 73%
    17:00 +13°C° 0 mm 4 m/s 742 mmHg 77%
    18:00 +12°C° 0 mm 3 m/s 742 mmHg 82%
    19:00 +12°C° 0.1 mm 3 m/s 742 mmHg 84%
    20:00 +12°C° 0.1 mm 3 m/s 742 mmHg 86%
    21:00 +11°C° 0.1 mm 3 m/s 742 mmHg 89%
    22:00 +11°C° 0.1 mm 3 m/s 742 mmHg 89%
    23:00 +11°C° 0.1 mm 3 m/s 742 mmHg 89%

    18 Octombrie, Vineri

    Timp Temperatura Precipitaţii Vânt Presiune Umiditate
    00:00 +11°C° 0.1 mm 3 m/s 741 mmHg 89%
    01:00 +11°C° 0.1 mm 3 m/s 741 mmHg 90%
    02:00 +10°C° 0.1 mm 3 m/s 741 mmHg 91%
    03:00 +10°C° 0.1 mm 3 m/s 741 mmHg 92%
    04:00 +10°C° 0 mm 3 m/s 741 mmHg 92%
    05:00 +9°C° 0 mm 2 m/s 741 mmHg 93%
    06:00 +9°C° 0 mm 2 m/s 741 mmHg 93%
    07:00 +9°C° 0.1 mm 2 m/s 741 mmHg 93%
    08:00 +10°C° 0.1 mm 2 m/s 741 mmHg 92%
    09:00 +10°C° 0.1 mm 2 m/s 742 mmHg 92%
    10:00 +12°C° 0 mm 2 m/s 742 mmHg 87%
    11:00 +13°C° 0 mm 2 m/s 742 mmHg 83%
    12:00 +14°C° 0 mm 2 m/s 743 mmHg 78%
    13:00 +14°C° 0.1 mm 2 m/s 743 mmHg 78%
    14:00 +14°C° 0.1 mm 2 m/s 743 mmHg 77%
    15:00 +14°C° 0.1 mm 2 m/s 744 mmHg 77%
    16:00 +13°C° 0.1 mm 2 m/s 744 mmHg 81%
    17:00 +11°C° 0.1 mm 3 m/s 744 mmHg 86%
    18:00 +10°C° 0.1 mm 3 m/s 744 mmHg 90%
    19:00 +10°C° 0 mm 3 m/s 744 mmHg 90%
    20:00 +9°C° 0 mm 3 m/s 745 mmHg 91%
    21:00 +8°C° 0 mm 2 m/s 745 mmHg 91%
    22:00 +8°C° 0 mm 2 m/s 745 mmHg 91%
    23:00 +8°C° 0 mm 2 m/s 745 mmHg 91%

    19 Octombrie, Sâmbătă

    Timp Temperatura Precipitaţii Vânt Presiune Umiditate
    00:00 +9°C° 0 mm 1 m/s 745 mmHg 91%
    01:00 +8°C° 0.1 mm 2 m/s 746 mmHg 91%
    02:00 +8°C° 0.1 mm 2 m/s 746 mmHg 91%
    03:00 +8°C° 0.1 mm 2 m/s 746 mmHg 92%
    04:00 +8°C° 0 mm 1 m/s 746 mmHg 92%
    05:00 +8°C° 0 mm 1 m/s 746 mmHg 92%
    06:00 +8°C° 0 mm 1 m/s 747 mmHg 92%
    07:00 +8°C° 0 mm 1 m/s 747 mmHg 91%
    08:00 +8°C° 0 mm 1 m/s 747 mmHg 90%
    09:00 +9°C° 0 mm 1 m/s 747 mmHg 88%
    10:00 +9°C° 0 mm 1 m/s 748 mmHg 86%
    11:00 +10°C° 0 mm 1 m/s 748 mmHg 83%
    12:00 +11°C° 0 mm 1 m/s 748 mmHg 80%
    13:00 +11°C° 0 mm 1 m/s 748 mmHg 79%
    14:00 +11°C° 0 mm 1 m/s 748 mmHg 78%
    15:00 +11°C° 0 mm 1 m/s 748 mmHg 77%
    16:00 +11°C° 0 mm 1 m/s 748 mmHg 78%
    17:00 +11°C° 0 mm 1 m/s 748 mmHg 80%
    18:00 +9°C° 0 mm 0 m/s 749 mmHg 82%
    19:00 +10°C° 0 mm 1 m/s 749 mmHg 83%
    20:00 +10°C° 0 mm 1 m/s 749 mmHg 84%
    21:00 +10°C° 0 mm 1 m/s 749 mmHg 84%
    22:00 +9°C° 0 mm 1 m/s 749 mmHg 87%
    23:00 +8°C° 0 mm 1 m/s 749 mmHg 89%

    20 Octombrie, Duminică

    Timp Temperatura Precipitaţii Vânt Presiune Umiditate
    00:00 +8°C° 0 mm 1 m/s 750 mmHg 91%
    01:00 +8°C° 0 mm 1 m/s 750 mmHg 92%
    02:00 +6°C° 0 mm 2 m/s 750 mmHg 93%
    03:00 +6°C° 0 mm 2 m/s 750 mmHg 94%
    04:00 +6°C° 0 mm 2 m/s 750 mmHg 94%
    05:00 +6°C° 0 mm 2 m/s 750 mmHg 95%
    06:00 +6°C° 0 mm 1 m/s 750 mmHg 95%
    07:00 +6°C° 0 mm 2 m/s 750 mmHg 93%
    08:00 +6°C° 0 mm 2 m/s 750 mmHg 92%
    09:00 +7°C° 0 mm 2 m/s 750 mmHg 91%
    10:00 +8°C° 0 mm 2 m/s 750 mmHg 86%
    11:00 +9°C° 0 mm 3 m/s 751 mmHg 82%
    12:00 +10°C° 0 mm 3 m/s 751 mmHg 78%
    13:00 +10°C° 0 mm 3 m/s 751 mmHg 77%
    14:00 +11°C° 0 mm 3 m/s 750 mmHg 76%
    15:00 +11°C° 0 mm 3 m/s 750 mmHg 76%
    16:00 +10°C° 0 mm 3 m/s 750 mmHg 80%
    17:00 +9°C° 0 mm 3 m/s 750 mmHg 84%
    18:00 +8°C° 0 mm 3 m/s 750 mmHg 88%
    19:00 +8°C° 0 mm 3 m/s 750 mmHg 89%
    20:00 +7°C° 0 mm 3 m/s 750 mmHg 90%
    21:00 +7°C° 0 mm 3 m/s 750 mmHg 91%
    22:00 +7°C° 0 mm 3 m/s 750 mmHg 91%
    23:00 +7°C° 0 mm 3 m/s 750 mmHg 92%
    Arată mai mult